GW4780 Weather Reports


time (UTC)temp
C
wind
direction
speed
KPH
gust
KPH
rain 1hr
cm
rain 24hr
cm
rain mn
cm
humidity
%
barometer
mb
20260508071504 11 88 0.0 1.6 0.00 0.00 0.00 85 1016.8
20260508071004 10 89 1.6 3.2 0.00 0.00 0.00 86 1016.8
20260508070716 10 89 0.0 3.2 0.00 0.00 0.00 86 1016.7
20260508070005 10 91 0.0 4.8 0.00 0.00 0.00 87 1016.6
20260508065503 10 97 0.0 4.8 0.00 0.00 0.00 88 1016.5
20260508065003 10 103 0.0 3.2 0.00 0.00 0.00 88 1016.5
20260508064503 10 103 0.0 1.6 0.00 0.00 0.00 89 1016.6
20260508064003 10 103 0.0 1.6 0.00 0.00 0.00 89 1016.5
20260508063504 10 103 0.0 3.2 0.00 0.00 0.00 89 1016.5
20260508063217 9 103 0.0 3.2 0.00 0.00 0.00 89 1016.4
20260508062718 9 104 0.0 3.2 0.00 0.00 0.00 89 1016.3
20260508062004 9 105 0.0 1.6 0.00 0.00 0.00 89 1016.4
20260508061503 9 105 0.0 1.6 0.00 0.00 0.00 89 1016.4
20260508061004 9 105 0.0 1.6 0.00 0.00 0.00 89 1016.3
20260508060505 9 105 0.0 1.6 0.00 0.00 0.00 89 1016.2
20260508060217 9 0 0.0 0.0 0.00 0.00 0.00 89 1016.2
20260508055503 8 0 0.0 0.0 0.00 0.00 0.00 89 1016.1
20260508055003 8 0 0.0 0.0 0.00 0.00 0.00 89 1016.1
20260508054503 8 0 0.0 0.0 0.00 0.00 0.00 89 1016.1
20260508054219 8 0 0.0 0.0 0.00 0.00 0.00 89 1016.1
20260508053504 8 0 0.0 0.0 0.00 0.00 0.00 89 1016.1
20260508053219 8 0 0.0 0.0 0.00 0.00 0.00 89 1016.1
20260508052504 8 0 0.0 0.0 0.00 0.00 0.00 89 1016.1
20260508052004 8 105 0.0 1.6 0.00 0.00 0.00 89 1016.0
20260508051503 8 105 0.0 1.6 0.00 0.00 0.00 89 1016.0
20260508051003 8 0 0.0 0.0 0.00 0.00 0.00 89 1015.9
20260508050503 8 0 0.0 0.0 0.00 0.00 0.00 89 1015.9
20260508050003 8 105 0.0 1.6 0.00 0.00 0.00 89 1015.8
20260508045504 8 105 1.6 3.2 0.00 0.00 0.00 89 1015.7
20260508045217 8 105 1.6 3.2 0.00 0.00 0.00 89 1015.7
20260508044503 8 105 0.0 1.6 0.00 0.00 0.00 88 1015.7
20260508044004 8 0 0.0 0.0 0.00 0.00 0.00 88 1015.6
20260508043504 8 0 0.0 0.0 0.00 0.00 0.00 87 1015.6
20260508043003 8 0 0.0 0.0 0.00 0.00 0.00 88 1015.8
20260508042503 8 0 0.0 0.0 0.00 0.00 0.00 88 1015.8
20260508042003 8 0 0.0 0.0 0.00 0.00 0.00 87 1015.7
20260508041504 8 105 0.0 1.6 0.00 0.00 0.00 87 1015.6
20260508041003 8 105 0.0 1.6 0.00 0.00 0.00 87 1015.5
20260508040720 8 105 0.0 1.6 0.00 0.00 0.00 87 1015.5
20260508040005 8 105 0.0 1.6 0.00 0.00 0.00 87 1015.5
20260508035503 8 105 0.0 1.6 0.00 0.00 0.00 87 1015.6
20260508035216 8 105 0.0 1.6 0.00 0.00 0.00 87 1015.5
20260508034719 9 105 0.0 3.2 0.00 0.00 0.00 87 1015.6
20260508034004 9 105 0.0 3.2 0.00 0.00 0.00 86 1015.5
20260508033504 9 105 0.0 1.6 0.00 0.00 0.00 86 1015.6
20260508033004 9 105 0.0 1.6 0.00 0.00 0.00 86 1015.6
20260508032504 9 105 0.0 1.6 0.00 0.00 0.00 86 1015.5
20260508032004 9 105 0.0 1.6 0.00 0.00 0.00 86 1015.6
20260508031504 9 105 0.0 1.6 0.00 0.00 0.00 86 1015.7
20260508031003 9 105 0.0 1.6 0.00 0.00 0.00 85 1015.7
20260508030717 9 105 0.0 1.6 0.00 0.00 0.00 85 1015.5
20260508030003 9 105 0.0 1.6 0.00 0.00 0.00 85 1015.6
20260508025504 9 105 0.0 1.6 0.00 0.00 0.00 85 1015.5
20260508025004 9 105 0.0 1.6 0.00 0.00 0.00 85 1015.4
20260508024503 9 105 0.0 1.6 0.00 0.00 0.00 85 1015.5
20260508024003 9 105 0.0 1.6 0.00 0.00 0.00 85 1015.5
20260508023717 9 105 0.0 3.2 0.00 0.00 0.00 85 1015.6
20260508023003 9 105 0.0 3.2 0.00 0.00 0.00 85 1015.5
20260508022504 9 105 0.0 1.6 0.00 0.00 0.00 84 1015.6
20260508022218 9 105 0.0 3.2 0.00 0.00 0.00 84 1015.5
20260508021504 9 105 0.0 3.2 0.00 0.00 0.00 84 1015.5
20260508021004 9 105 0.0 3.2 0.00 0.00 0.00 84 1015.5
20260508020504 10 105 0.0 3.2 0.00 0.00 0.00 84 1015.4
20260508020003 10 105 0.0 3.2 0.00 0.00 0.00 83 1015.3
20260508015504 10 105 0.0 1.6 0.00 0.00 0.00 83 1015.4
20260508015217 10 105 0.0 1.6 0.00 0.00 0.00 83 1015.4
20260508014504 10 105 0.0 1.6 0.00 0.00 0.00 82 1015.3
20260508014004 10 105 0.0 3.2 0.00 0.00 0.00 82 1015.3
20260508013503 10 93 0.0 4.8 0.00 0.00 0.00 82 1015.3
20260508013003 10 117 0.0 4.8 0.00 0.00 0.00 82 1015.3
20260508012503 10 154 0.0 4.8 0.00 0.00 0.00 82 1015.2
20260508012217 10 157 1.6 4.8 0.00 0.00 0.00 82 1015.2
20260508011503 10 151 1.6 3.2 0.00 0.00 0.00 82 1015.2
20260508011003 10 136 0.0 3.2 0.00 0.00 0.00 82 1015.3
20260508010716 10 133 0.0 3.2 0.00 0.00 0.00 82 1015.2
20260508010003 10 124 0.0 1.6 0.00 0.00 0.00 81 1015.2
20260508005504 10 124 0.0 3.2 0.00 0.00 0.00 81 1015.3
20260508005004 10 124 0.0 3.2 0.00 0.00 0.00 81 1015.3
20260508004503 10 124 0.0 3.2 0.00 0.00 0.00 80 1015.3
20260508004003 10 124 0.0 3.2 0.00 0.00 0.00 80 1015.3
20260508003718 10 125 0.0 3.2 0.00 0.00 0.00 80 1015.3
20260508003217 10 129 0.0 1.6 0.00 0.00 0.00 80 1015.4
20260508002503 10 172 1.6 3.2 0.00 0.00 0.00 79 1015.4
20260508002003 10 197 1.6 4.8 0.00 0.00 0.00 79 1015.4
20260508001503 10 184 0.0 4.8 0.00 0.00 0.00 79 1015.4
20260508001003 10 148 1.6 6.4 0.00 0.00 0.00 79 1015.5
20260508000504 10 147 1.6 6.4 0.00 0.00 0.00 79 1015.5
20260508000004 10 161 3.2 9.7 0.00 0.00 0.00 79 1015.5
20260507235718 10 166 3.2 9.7 0.00 0.00 0.00 79 1015.6
20260507235004 10 176 1.6 9.7 0.00 0.00 0.00 79 1015.6
20260507234718 10 175 1.6 9.7 0.00 0.00 0.00 79 1015.6
20260507234003 10 166 3.2 8.0 0.00 0.00 0.00 78 1015.5
20260507233718 10 168 3.2 8.0 0.00 0.00 0.00 78 1015.5
20260507233004 11 187 1.6 6.4 0.00 0.00 0.00 78 1015.6
20260507232503 11 174 1.6 6.4 0.00 0.00 0.00 77 1015.6
20260507232003 11 164 1.6 6.4 0.00 0.00 0.00 77 1015.5
20260507231503 11 168 3.2 9.7 0.00 0.00 0.00 77 1015.6
20260507231004 11 169 4.8 11.3 0.00 0.00 0.00 77 1015.5
20260507230503 11 170 4.8 12.9 0.00 0.00 0.00 76 1015.6
20260507230005 11 171 4.8 12.9 0.00 0.00 0.00 76 1015.6
20260507225719 11 172 4.8 9.7 0.00 0.00 0.00 76 1015.6
20260507225216 11 173 4.8 9.7 0.00 0.00 0.00 76 1015.7
20260507224504 11 163 4.8 16.1 0.00 0.00 0.00 76 1015.8
20260507224216 11 164 4.8 16.1 0.00 0.00 0.00 76 1015.8
20260507223504 11 162 3.2 8.0 0.00 0.00 0.00 75 1015.7
20260507223003 11 155 3.2 11.3 0.00 0.00 0.00 75 1015.7
20260507222504 11 150 3.2 11.3 0.00 0.00 0.00 75 1015.7
20260507222003 11 145 3.2 9.7 0.00 0.00 0.00 74 1015.6
20260507221717 11 156 3.2 9.7 0.00 0.00 0.00 74 1015.6
20260507221003 11 157 4.8 12.9 0.00 0.00 0.00 74 1015.7
20260507220504 11 152 4.8 12.9 0.00 0.00 0.00 73 1015.6
20260507220003 11 158 4.8 11.3 0.00 0.00 0.00 73 1015.6
20260507215504 11 158 4.8 11.3 0.00 0.00 0.00 72 1015.6
20260507215004 11 160 4.8 16.1 0.00 0.00 0.00 72 1015.6
20260507214504 11 160 4.8 16.1 0.00 0.00 0.00 72 1015.7
20260507214003 11 151 3.2 9.7 0.00 0.00 0.00 71 1015.7
20260507213503 11 141 3.2 9.7 0.00 0.00 0.00 71 1015.6
20260507213003 11 136 3.2 14.5 0.00 0.00 0.00 71 1015.6
20260507212503 11 134 3.2 14.5 0.00 0.00 0.00 71 1015.6
20260507212003 11 120 1.6 8.0 0.00 0.00 0.00 70 1015.5
20260507211503 11 94 1.6 4.8 0.00 0.00 0.00 70 1015.5
20260507211004 11 88 1.6 4.8 0.00 0.00 0.00 70 1015.4
20260507210503 11 84 1.6 4.8 0.00 0.00 0.00 70 1015.4
20260507210003 11 90 1.6 6.4 0.00 0.00 0.00 69 1015.3
20260507205504 12 91 1.6 6.4 0.00 0.00 0.00 69 1015.4
20260507205003 12 91 1.6 6.4 0.00 0.00 0.00 69 1015.3
20260507204719 12 93 1.6 6.4 0.00 0.00 0.00 69 1015.3
20260507204003 12 84 1.6 4.8 0.00 0.00 0.00 68 1015.2
20260507203504 12 92 1.6 6.4 0.00 0.00 0.00 68 1015.3
20260507203003 12 89 1.6 8.0 0.00 0.00 0.00 67 1015.2
20260507202503 12 97 1.6 8.0 0.00 0.00 0.00 67 1015.2
20260507202220 12 101 1.6 8.0 0.00 0.00 0.00 67 1015.1
20260507201503 12 84 1.6 4.8 0.00 0.00 0.00 66 1015.1
20260507201217 12 83 1.6 4.8 0.00 0.00 0.00 66 1015.1
20260507200504 12 96 3.2 9.7 0.00 0.00 0.00 65 1015.0
20260507200003 12 82 1.6 8.0 0.00 0.00 0.00 65 1014.9
20260507195503 12 91 1.6 8.0 0.00 0.00 0.00 65 1014.9
20260507195004 12 101 1.6 11.3 0.00 0.00 0.00 64 1014.8
20260507194503 12 105 1.6 11.3 0.00 0.00 0.00 64 1014.9
20260507194003 12 115 1.6 9.7 0.00 0.00 0.00 64 1014.8
20260507193504 12 108 1.6 9.7 0.00 0.00 0.00 63 1014.8
20260507193003 12 86 1.6 4.8 0.00 0.00 0.00 63 1014.8
20260507192503 12 118 1.6 8.0 0.00 0.00 0.00 62 1014.8
20260507192003 13 137 1.6 8.0 0.00 0.00 0.00 62 1014.8
20260507191503 13 114 1.6 6.4 0.00 0.00 0.00 61 1014.8
20260507191003 13 119 3.2 8.0 0.00 0.00 0.00 60 1014.7
20260507190503 13 130 3.2 9.7 0.00 0.00 0.00 60 1014.7
20260507190005 13 128 3.2 9.7 0.00 0.00 0.00 59 1014.6
20260507185503 13 126 3.2 8.0 0.00 0.00 0.00 59 1014.7
20260507185003 13 140 3.2 8.0 0.00 0.00 0.00 58 1014.7
20260507184718 13 136 3.2 8.0 0.00 0.00 0.00 58 1014.7
20260507184003 13 119 3.2 8.0 0.00 0.00 0.00 58 1014.6
20260507183504 13 137 3.2 11.3 0.00 0.00 0.00 57 1014.5
20260507183003 13 126 3.2 11.3 0.00 0.00 0.00 57 1014.5
20260507182718 13 128 3.2 9.7 0.00 0.00 0.00 57 1014.6
20260507182003 13 128 3.2 9.7 0.00 0.00 0.00 57 1014.5
20260507181503 13 126 3.2 9.7 0.00 0.00 0.00 56 1014.4
20260507181003 14 129 3.2 9.7 0.00 0.00 0.00 55 1014.3
20260507180503 14 139 3.2 8.0 0.00 0.00 0.00 54 1014.4
20260507180004 14 143 3.2 8.0 0.00 0.00 0.00 54 1014.4
20260507175504 14 144 3.2 8.0 0.00 0.00 0.00 53 1014.4
20260507175004 14 148 3.2 9.7 0.00 0.00 0.00 53 1014.4
20260507174717 14 144 3.2 9.7 0.00 0.00 0.00 53 1014.3
20260507174004 15 149 3.2 11.3 0.00 0.00 0.00 54 1014.4
20260507173503 15 161 4.8 12.9 0.00 0.00 0.00 53 1014.4
20260507173004 15 169 4.8 12.9 0.00 0.00 0.00 52 1014.4
20260507172503 15 170 6.4 14.5 0.00 0.00 0.00 52 1014.4
20260507172003 15 158 4.8 14.5 0.00 0.00 0.00 51 1014.3
20260507171504 15 147 3.2 9.7 0.00 0.00 0.00 51 1014.4
20260507171004 15 128 3.2 9.7 0.00 0.00 0.00 52 1014.4
20260507170504 15 91 3.2 9.7 0.00 0.00 0.00 51 1014.4
20260507170003 15 92 3.2 12.9 0.00 0.00 0.00 51 1014.4
20260507165503 15 87 3.2 12.9 0.00 0.00 0.00 51 1014.4
20260507165004 15 98 3.2 9.7 0.00 0.00 0.00 51 1014.4
20260507164504 15 107 3.2 9.7 0.00 0.00 0.00 49 1014.4
20260507164003 15 99 3.2 9.7 0.00 0.00 0.00 50 1014.5
20260507163503 15 138 4.8 14.5 0.00 0.00 0.00 48 1014.4
20260507163003 15 155 6.4 14.5 0.00 0.00 0.00 50 1014.4
20260507162504 15 146 4.8 12.9 0.00 0.00 0.00 48 1014.4
20260507162003 15 117 4.8 11.3 0.00 0.00 0.00 50 1014.4
20260507161504 15 112 4.8 12.9 0.00 0.00 0.00 50 1014.4
20260507161003 15 109 4.8 14.5 0.00 0.00 0.00 50 1014.4
20260507160504 15 103 4.8 14.5 0.00 0.00 0.00 51 1014.4
20260507160003 15 95 3.2 12.9 0.00 0.00 0.00 51 1014.4
20260507155503 15 112 3.2 12.9 0.00 0.00 0.00 52 1014.5
20260507155003 15 148 4.8 11.3 0.00 0.00 0.00 52 1014.6
20260507154503 15 157 4.8 11.3 0.00 0.00 0.00 52 1014.7
20260507154005 15 129 3.2 9.7 0.00 0.00 0.00 52 1014.7
20260507153504 14 126 3.2 11.3 0.00 0.00 0.00 53 1014.8
20260507153003 14 144 4.8 12.9 0.00 0.00 0.00 53 1014.8
20260507152504 15 140 4.8 12.9 0.00 0.00 0.00 53 1014.8
20260507152004 15 141 4.8 12.9 0.00 0.00 0.00 53 1014.8
20260507151503 15 141 4.8 12.9 0.00 0.00 0.00 52 1014.9
20260507151003 15 136 4.8 14.5 0.00 0.00 0.00 53 1014.9
20260507150503 15 123 4.8 14.5 0.00 0.00 0.00 53 1015.0
20260507150005 15 139 4.8 12.9 0.00 0.00 0.00 52 1014.9
20260507145504 15 160 4.8 9.7 0.00 0.00 0.00 51 1014.9
20260507145003 15 169 4.8 11.3 0.00 0.00 0.00 53 1014.9
20260507144718 15 165 4.8 11.3 0.00 0.00 0.00 52 1014.9
20260507144003 15 146 3.2 9.7 0.00 0.00 0.00 52 1014.9
20260507143503 15 144 3.2 9.7 0.00 0.00 0.00 53 1015.0
20260507143219 15 149 3.2 9.7 0.00 0.00 0.00 52 1015.0
20260507142504 15 137 3.2 11.3 0.00 0.00 0.00 52 1015.0
20260507142003 15 126 3.2 11.3 0.00 0.00 0.00 52 1015.0
20260507141503 15 151 3.2 9.7 0.00 0.00 0.00 52 1015.1
20260507141004 15 161 4.8 9.7 0.00 0.00 0.00 51 1015.1
20260507140503 15 164 4.8 9.7 0.00 0.00 0.00 51 1015.2
20260507140005 15 155 4.8 9.7 0.00 0.00 0.00 51 1015.2
20260507135503 15 155 4.8 9.7 0.00 0.00 0.00 50 1015.2
20260507135003 15 169 6.4 11.3 0.00 0.00 0.00 50 1015.2
20260507134503 15 170 6.4 12.9 0.00 0.00 0.00 50 1015.2
20260507134003 15 165 4.8 12.9 0.00 0.00 0.00 52 1015.2
20260507133718 15 160 4.8 12.9 0.00 0.00 0.00 52 1015.2
20260507133004 15 161 4.8 12.9 0.00 0.00 0.00 51 1015.3
20260507132503 15 160 4.8 12.9 0.00 0.00 0.00 51 1015.2
20260507132003 15 146 4.8 12.9 0.00 0.00 0.00 50 1015.2
20260507131504 16 166 6.4 16.1 0.00 0.00 0.00 49 1015.4
20260507131003 16 173 8.0 17.7 0.00 0.00 0.00 50 1015.3
20260507130504 16 168 6.4 17.7 0.00 0.00 0.00 49 1015.3
20260507130005 17 181 8.0 17.7 0.00 0.00 0.00 50 1015.3
20260507125504 16 184 8.0 16.1 0.00 0.00 0.00 48 1015.3
20260507125004 16 172 4.8 16.1 0.00 0.00 0.00 50 1015.3
20260507124503 16 171 4.8 12.9 0.00 0.00 0.00 52 1015.3
20260507124003 16 173 6.4 16.1 0.00 0.00 0.00 51 1015.3
20260507123503 16 179 4.8 16.1 0.00 0.00 0.00 52 1015.3
20260507123003 16 181 3.2 9.7 0.00 0.00 0.00 52 1015.2
20260507122504 16 175 3.2 11.3 0.00 0.00 0.00 52 1015.3
20260507122004 16 180 6.4 12.9 0.00 0.00 0.00 51 1015.3
20260507121503 16 168 6.4 14.5 0.00 0.00 0.00 51 1015.4
20260507121003 16 133 4.8 14.5 0.00 0.00 0.00 48 1015.4
20260507120503 16 161 4.8 12.9 0.00 0.00 0.00 53 1015.3
20260507120004 16 189 6.4 14.5 0.00 0.00 0.00 51 1015.5
20260507115503 16 180 6.4 14.5 0.00 0.00 0.00 52 1015.6
20260507115004 16 151 4.8 14.5 0.00 0.00 0.00 54 1015.6
20260507114503 16 146 4.8 9.7 0.00 0.00 0.00 56 1015.6
20260507114003 16 168 6.4 14.5 0.00 0.00 0.00 56 1015.6
20260507113504 15 174 6.4 14.5 0.00 0.00 0.00 54 1015.6
20260507113218 15 181 4.8 14.5 0.00 0.00 0.00 54 1015.6
20260507112503 15 166 4.8 14.5 0.00 0.00 0.00 54 1015.7
20260507112003 15 154 4.8 14.5 0.00 0.00 0.00 56 1015.7
20260507111506 15 167 4.8 12.9 0.00 0.00 0.00 56 1015.7
20260507111004 15 167 6.4 14.5 0.00 0.00 0.00 57 1015.8
20260507110504 15 158 6.4 14.5 0.00 0.00 0.00 55 1015.7
20260507110005 15 120 4.8 14.5 0.00 0.00 0.00 57 1015.7
20260507105504 15 125 4.8 14.5 0.00 0.00 0.00 59 1015.7
20260507105003 14 163 4.8 9.7 0.00 0.00 0.00 60 1015.8
20260507104503 14 168 4.8 9.7 0.00 0.00 0.00 61 1015.8
20260507104003 14 169 6.4 14.5 0.00 0.00 0.00 60 1015.9
20260507103503 14 162 6.4 14.5 0.00 0.00 0.00 60 1015.9
20260507103003 14 129 4.8 12.9 0.00 0.00 0.00 60 1016.0
20260507102503 14 145 4.8 12.9 0.00 0.00 0.00 62 1016.0
20260507102006 13 164 6.4 12.9 0.00 0.00 0.00 62 1016.0
20260507101717 13 164 6.4 12.9 0.00 0.00 0.00 62 1016.0
20260507101003 13 149 4.8 16.1 0.00 0.00 0.00 62 1016.1
20260507100504 13 143 6.4 16.1 0.00 0.00 0.00 64 1016.2
20260507100003 13 139 4.8 12.9 0.00 0.00 0.00 64 1016.0
20260507095503 13 154 4.8 11.3 0.00 0.00 0.00 66 1016.1
20260507095003 12 163 4.8 11.3 0.00 0.00 0.00 66 1016.1
20260507094504 12 160 4.8 11.3 0.00 0.00 0.00 68 1016.1
20260507094218 12 156 4.8 11.3 0.00 0.00 0.00 68 1016.2
20260507093504 12 157 3.2 9.7 0.00 0.00 0.00 69 1016.2
20260507093004 12 148 4.8 11.3 0.00 0.00 0.00 69 1016.2
20260507092503 12 155 4.8 12.9 0.00 0.00 0.00 70 1016.2
20260507092219 12 163 6.4 14.5 0.00 0.00 0.00 70 1016.2
20260507091503 12 177 6.4 16.1 0.00 0.00 0.00 71 1016.2
20260507091003 12 173 4.8 16.1 0.00 0.00 0.00 71 1016.2
20260507090504 11 173 4.8 11.3 0.00 0.00 0.00 71 1016.2
20260507090217 11 171 4.8 11.3 0.00 0.00 0.00 72 1016.2
20260507085503 11 160 4.8 16.1 0.00 0.00 0.00 72 1016.3
20260507085003 11 161 4.8 16.1 0.00 0.00 0.00 72 1016.3
20260507084504 11 163 4.8 11.3 0.00 0.00 0.00 72 1016.3
20260507084217 11 165 4.8 11.3 0.00 0.00 0.00 72 1016.3
20260507083503 11 134 4.8 9.7 0.00 0.00 0.00 73 1016.2
20260507083004 11 123 3.2 9.7 0.00 0.00 0.00 74 1016.2
20260507082718 11 139 3.2 11.3 0.00 0.00 0.00 74 1016.2
20260507082004 11 151 3.2 11.3 0.00 0.00 0.00 76 1016.3
20260507081504 10 151 3.2 9.7 0.00 0.00 0.00 76 1016.3
20260507081003 10 155 3.2 9.7 0.00 0.00 0.00 78 1016.3
20260507080503 10 159 3.2 9.7 0.00 0.00 0.00 81 1016.3
20260507080005 9 149 3.2 8.0 0.00 0.00 0.00 84 1016.3
20260507075503 8 134 3.2 6.4 0.00 0.00 0.00 87 1016.3
20260507075003 7 109 1.6 6.4 0.00 0.00 0.00 89 1016.2
20260507074503 7 88 0.0 4.8 0.00 0.00 0.00 91 1016.3
20260507074003 7 134 1.6 4.8 0.00 0.00 0.00 92 1016.2
20260507073718 6 170 0.0 3.2 0.00 0.00 0.00 92 1016.1
20260507073003 6 153 1.6 6.4 0.00 0.00 0.00 93 1016.2
20260507072503 6 129 1.6 6.4 0.00 0.00 0.00 94 1016.2
20260507072004 6 88 1.6 4.8 0.00 0.00 0.00 95 1016.2
20260507071718 5 84 1.6 4.8 0.00 0.00 0.00 95 1016.1